| time (UTC) | temp F | wind direction | speed knots | gust knots | rain 1hr in | rain 24hr in | rain mn in | humidity % | barometer mb |
| 20260506103854 | 44 | 74 | 0.0 | 0.0 | 0.00 | 0.03 | 0.00 | 74 | 1014.5 |
| 20260506103124 | 44 | 74 | 0.0 | 0.9 | 0.00 | 0.03 | 0.00 | 74 | 1014.3 |
| 20260506102838 | 44 | 74 | 0.0 | 0.9 | 0.00 | 0.03 | 0.00 | 74 | 1014.3 |
| 20260506102112 | 45 | 156 | 0.0 | 0.9 | 0.00 | 0.03 | 0.00 | 73 | 1014.3 |
| 20260506101606 | 45 | 156 | 0.0 | 0.0 | 0.00 | 0.03 | 0.00 | 73 | 1014.2 |
| 20260506101100 | 45 | 156 | 0.0 | 0.0 | 0.00 | 0.03 | 0.00 | 73 | 1014.1 |
| 20260506100554 | 45 | 156 | 0.0 | 0.0 | 0.00 | 0.03 | 0.00 | 73 | 1014.1 |
| 20260506100048 | 45 | 156 | 0.0 | 0.0 | 0.00 | 0.03 | 0.00 | 72 | 1014.1 |
| 20260506095542 | 45 | 156 | 0.0 | 0.0 | 0.00 | 0.03 | 0.00 | 72 | 1014.1 |
| 20260506095257 | 46 | 156 | 0.0 | 1.7 | 0.00 | 0.03 | 0.00 | 72 | 1014.2 |
| 20260506094751 | 46 | 156 | 0.0 | 1.7 | 0.00 | 0.03 | 0.00 | 71 | 1014.1 |
| 20260506094024 | 46 | 156 | 0.0 | 0.9 | 0.00 | 0.03 | 0.00 | 71 | 1014.1 |
| 20260506093518 | 46 | 156 | 0.9 | 2.6 | 0.00 | 0.03 | 0.00 | 71 | 1014.1 |
| 20260506093012 | 46 | 156 | 0.9 | 2.6 | 0.00 | 0.03 | 0.00 | 70 | 1013.8 |
| 20260506092505 | 46 | 176 | 0.0 | 2.6 | 0.00 | 0.03 | 0.00 | 69 | 1013.9 |
| 20260506092000 | 47 | 176 | 0.0 | 1.7 | 0.00 | 0.03 | 0.00 | 69 | 1014.1 |
| 20260506091453 | 47 | 176 | 0.0 | 1.7 | 0.00 | 0.03 | 0.00 | 68 | 1013.9 |
| 20260506090948 | 47 | 257 | 0.0 | 0.0 | 0.00 | 0.03 | 0.00 | 68 | 1014.1 |
| 20260506090442 | 47 | 257 | 0.0 | 0.9 | 0.00 | 0.03 | 0.00 | 68 | 1013.9 |
| 20260506085936 | 47 | 257 | 0.0 | 1.7 | 0.00 | 0.03 | 0.00 | 69 | 1013.9 |
| 20260506085430 | 47 | 257 | 0.0 | 1.7 | 0.00 | 0.03 | 0.00 | 69 | 1014.1 |
| 20260506084923 | 48 | 257 | 0.9 | 1.7 | 0.00 | 0.03 | 0.00 | 69 | 1014.1 |
| 20260506084417 | 48 | 286 | 0.9 | 2.6 | 0.00 | 0.03 | 0.00 | 68 | 1013.9 |
| 20260506083911 | 48 | 132 | 0.9 | 4.3 | 0.00 | 0.03 | 0.00 | 68 | 1013.8 |
| 20260506083405 | 48 | 140 | 0.0 | 4.3 | 0.00 | 0.03 | 0.00 | 68 | 1013.8 |
| 20260506082859 | 48 | 271 | 0.0 | 1.7 | 0.00 | 0.03 | 0.00 | 66 | 1014.1 |
| 20260506082353 | 48 | 245 | 0.0 | 1.7 | 0.00 | 0.03 | 0.00 | 66 | 1013.9 |
| 20260506081847 | 48 | 288 | 0.9 | 2.6 | 0.00 | 0.03 | 0.00 | 66 | 1013.9 |
| 20260506081342 | 48 | 155 | 0.9 | 2.6 | 0.00 | 0.03 | 0.00 | 65 | 1013.9 |
| 20260506080835 | 48 | 94 | 0.9 | 2.6 | 0.00 | 0.03 | 0.00 | 65 | 1014.1 |
| 20260506080330 | 48 | 94 | 0.9 | 2.6 | 0.00 | 0.03 | 0.00 | 65 | 1013.9 |
| 20260506073254 | 50 | 48 | 0.0 | 0.9 | 0.00 | 0.03 | 0.00 | 63 | 1014.2 |
| 20260506072748 | 50 | 48 | 0.0 | 0.0 | 0.00 | 0.03 | 0.00 | 63 | 1014.3 |
| 20260506072242 | 51 | 48 | 0.0 | 0.0 | 0.00 | 0.03 | 0.00 | 62 | 1014.4 |
| 20260506071736 | 51 | 48 | 0.0 | 1.7 | 0.00 | 0.03 | 0.00 | 61 | 1014.3 |
| 20260506071455 | 51 | 48 | 0.0 | 1.7 | 0.00 | 0.03 | 0.00 | 61 | 1014.2 |
| 20260506070724 | 51 | 48 | 0.0 | 0.0 | 0.00 | 0.03 | 0.00 | 61 | 1014.3 |
| 20260506070218 | 52 | 48 | 0.0 | 1.7 | 0.00 | 0.03 | 0.00 | 60 | 1014.3 |
| 20260506062130 | 52 | 76 | 0.9 | 3.5 | 0.00 | 0.03 | 0.00 | 60 | 1013.9 |
| 20260506061624 | 52 | 346 | 0.9 | 3.5 | 0.00 | 0.03 | 0.00 | 61 | 1013.9 |
| 20260506061118 | 52 | 350 | 0.9 | 3.5 | 0.00 | 0.03 | 0.00 | 60 | 1013.8 |
| 20260506060612 | 52 | 54 | 1.7 | 4.3 | 0.00 | 0.03 | 0.00 | 60 | 1013.9 |
| 20260506060106 | 52 | 355 | 1.7 | 7.0 | 0.00 | 0.03 | 0.00 | 60 | 1013.8 |
| 20260506051229 | 52 | 53 | 1.7 | 4.3 | 0.00 | 0.03 | 0.03 | 63 | 1014.1 |
| 20260506050500 | 52 | 32 | 1.7 | 5.2 | 0.00 | 0.03 | 0.03 | 64 | 1013.9 |
| 20260506044942 | 51 | 355 | 0.9 | 4.3 | 0.00 | 0.03 | 0.03 | 65 | 1013.9 |
| 20260506044436 | 51 | 52 | 1.7 | 6.1 | 0.00 | 0.03 | 0.03 | 65 | 1013.9 |
| 20260506043930 | 52 | 355 | 1.7 | 7.0 | 0.00 | 0.03 | 0.03 | 64 | 1013.8 |
| 20260506043424 | 52 | 43 | 2.6 | 7.8 | 0.00 | 0.03 | 0.03 | 64 | 1013.8 |
| 20260506042918 | 52 | 34 | 3.5 | 7.8 | 0.00 | 0.03 | 0.03 | 64 | 1013.7 |
| 20260506042412 | 52 | 333 | 3.5 | 9.6 | 0.00 | 0.03 | 0.03 | 63 | 1013.7 |
| 20260506041906 | 52 | 348 | 3.5 | 9.6 | 0.00 | 0.03 | 0.03 | 62 | 1013.5 |
| 20260506041400 | 52 | 349 | 3.5 | 7.8 | 0.00 | 0.03 | 0.03 | 62 | 1013.2 |
| 20260506040854 | 52 | 45 | 3.5 | 7.8 | 0.00 | 0.03 | 0.03 | 62 | 1013.2 |
| 20260506040348 | 52 | 348 | 3.5 | 7.8 | 0.00 | 0.03 | 0.03 | 61 | 1013.2 |
| 20260506035842 | 52 | 344 | 3.5 | 7.8 | 0.00 | 0.03 | 0.03 | 63 | 1013.2 |
| 20260506035336 | 52 | 5 | 3.5 | 10.4 | 0.00 | 0.03 | 0.03 | 63 | 1013.1 |
| 20260506034830 | 52 | 333 | 2.6 | 10.4 | 0.00 | 0.03 | 0.03 | 64 | 1013.0 |
| 20260506034324 | 52 | 49 | 2.6 | 9.6 | 0.00 | 0.03 | 0.03 | 64 | 1013.1 |
| 20260506033818 | 52 | 18 | 3.5 | 9.6 | 0.00 | 0.03 | 0.03 | 65 | 1013.1 |
| 20260506033312 | 52 | 338 | 3.5 | 13.0 | 0.00 | 0.03 | 0.03 | 65 | 1013.1 |
| 20260506032806 | 52 | 47 | 4.3 | 13.0 | 0.00 | 0.03 | 0.03 | 65 | 1012.8 |
| 20260506032306 | 52 | 69 | 4.3 | 15.6 | 0.00 | 0.03 | 0.03 | 65 | 1012.8 |
| 20260506031806 | 52 | 68 | 4.3 | 15.6 | 0.00 | 0.03 | 0.03 | 64 | 1012.8 |
| 20260506031306 | 53 | 77 | 4.3 | 11.3 | 0.00 | 0.03 | 0.03 | 64 | 1012.7 |
| 20260506031028 | 53 | 22 | 4.3 | 11.3 | 0.00 | 0.03 | 0.03 | 64 | 1012.7 |
| 20260506030305 | 53 | 36 | 4.3 | 10.4 | 0.00 | 0.03 | 0.03 | 63 | 1012.7 |
| 20260506025806 | 53 | 49 | 4.3 | 10.4 | 0.00 | 0.03 | 0.03 | 63 | 1012.7 |
| 20260506025306 | 53 | 43 | 4.3 | 10.4 | 0.00 | 0.03 | 0.03 | 62 | 1012.5 |
| 20260506024806 | 53 | 40 | 5.2 | 13.9 | 0.00 | 0.03 | 0.03 | 62 | 1012.3 |
| 20260506024306 | 54 | 27 | 6.1 | 13.9 | 0.00 | 0.03 | 0.03 | 61 | 1012.1 |
| 20260506023806 | 55 | 303 | 6.1 | 13.0 | 0.00 | 0.03 | 0.03 | 59 | 1012.3 |
| 20260506023306 | 55 | 338 | 7.0 | 14.8 | 0.00 | 0.03 | 0.03 | 58 | 1012.0 |
| 20260506022806 | 56 | 31 | 7.0 | 14.8 | 0.00 | 0.03 | 0.03 | 55 | 1011.7 |
| 20260506022306 | 57 | 17 | 6.1 | 13.9 | 0.00 | 0.03 | 0.03 | 54 | 1011.7 |
| 20260506022024 | 57 | 355 | 3.5 | 13.0 | 0.00 | 0.03 | 0.03 | 53 | 1011.4 |
| 20260506021306 | 58 | 342 | 0.9 | 3.5 | 0.00 | 0.03 | 0.03 | 55 | 1011.2 |
| 20260506020806 | 58 | 298 | 0.9 | 1.7 | 0.00 | 0.03 | 0.03 | 54 | 1011.0 |
| 20260506020305 | 58 | 226 | 0.9 | 4.3 | 0.00 | 0.03 | 0.03 | 53 | 1010.8 |
| 20260506015806 | 58 | 225 | 1.7 | 4.3 | 0.00 | 0.03 | 0.03 | 53 | 1010.5 |
| 20260506015306 | 59 | 225 | 1.7 | 6.1 | 0.00 | 0.03 | 0.03 | 52 | 1010.3 |
| 20260506014805 | 59 | 205 | 2.6 | 7.8 | 0.00 | 0.03 | 0.03 | 51 | 1010.2 |
| 20260506014306 | 59 | 217 | 3.5 | 7.8 | 0.00 | 0.03 | 0.03 | 50 | 1010.1 |
| 20260506013805 | 59 | 217 | 3.5 | 6.1 | 0.00 | 0.03 | 0.03 | 50 | 1010.1 |
| 20260506013306 | 60 | 205 | 4.3 | 7.8 | 0.00 | 0.03 | 0.03 | 50 | 1010.0 |
| 20260506012806 | 60 | 215 | 3.5 | 7.8 | 0.00 | 0.03 | 0.03 | 49 | 1009.8 |
| 20260506012308 | 60 | 210 | 2.6 | 7.0 | 0.00 | 0.03 | 0.03 | 49 | 1010.0 |
| 20260506011805 | 60 | 209 | 1.7 | 6.1 | 0.00 | 0.03 | 0.03 | 50 | 1010.1 |
| 20260506011530 | 60 | 219 | 1.7 | 4.3 | 0.00 | 0.03 | 0.03 | 50 | 1010.0 |
| 20260506010805 | 60 | 221 | 1.7 | 4.3 | 0.00 | 0.03 | 0.03 | 52 | 1009.7 |
| 20260506010525 | 60 | 222 | 1.7 | 4.3 | 0.00 | 0.03 | 0.03 | 49 | 1009.8 |
| 20260506005805 | 60 | 225 | 1.7 | 3.5 | 0.00 | 0.03 | 0.03 | 53 | 1009.7 |
| 20260506005306 | 60 | 309 | 0.9 | 3.5 | 0.00 | 0.03 | 0.03 | 54 | 1009.8 |
| 20260506004805 | 60 | 227 | 1.7 | 4.3 | 0.00 | 0.03 | 0.03 | 56 | 1010.1 |
| 20260506004305 | 60 | 267 | 1.7 | 5.2 | 0.00 | 0.03 | 0.03 | 53 | 1010.1 |
| 20260506003804 | 60 | 267 | 1.7 | 5.2 | 0.00 | 0.03 | 0.03 | 55 | 1009.8 |
| 20260506003303 | 60 | 126 | 1.7 | 5.2 | 0.00 | 0.03 | 0.03 | 53 | 1009.8 |
| 20260506002803 | 60 | 121 | 1.7 | 5.2 | 0.00 | 0.03 | 0.03 | 52 | 1010.1 |
| 20260506002305 | 61 | 117 | 1.7 | 3.5 | 0.00 | 0.03 | 0.03 | 51 | 1010.0 |
| 20260506001759 | 61 | 118 | 1.7 | 3.5 | 0.00 | 0.03 | 0.03 | 51 | 1009.8 |
| 20260506001257 | 61 | 120 | 1.7 | 4.3 | 0.00 | 0.03 | 0.03 | 51 | 1009.6 |
| 20260506000755 | 61 | 166 | 2.6 | 7.0 | 0.00 | 0.03 | 0.03 | 51 | 1009.5 |
| 20260506000255 | 62 | 148 | 2.6 | 7.0 | 0.00 | 0.03 | 0.03 | 49 | 1009.6 |
| 20260506000021 | 62 | 167 | 2.6 | 5.2 | 0.00 | 0.03 | 0.03 | 50 | 1009.6 |
| 20260505235252 | 63 | 157 | 1.7 | 5.2 | 0.00 | 0.03 | 0.03 | 48 | 1009.7 |
| 20260505234746 | 63 | 134 | 2.6 | 6.1 | 0.00 | 0.03 | 0.03 | 48 | 1009.7 |
| 20260505234240 | 63 | 85 | 2.6 | 7.0 | 0.00 | 0.03 | 0.03 | 50 | 1009.6 |
| 20260505233734 | 63 | 74 | 2.6 | 7.0 | 0.00 | 0.03 | 0.03 | 51 | 1009.7 |
| 20260505233228 | 63 | 88 | 3.5 | 7.0 | 0.00 | 0.03 | 0.03 | 50 | 1009.7 |
| 20260505232722 | 63 | 106 | 4.3 | 7.8 | 0.00 | 0.03 | 0.03 | 51 | 1009.7 |
| 20260505232216 | 63 | 138 | 4.3 | 7.8 | 0.00 | 0.03 | 0.03 | 51 | 1009.6 |
| 20260505231711 | 62 | 90 | 2.6 | 6.1 | 0.00 | 0.03 | 0.03 | 54 | 1009.8 |
| 20260505231204 | 62 | 121 | 3.5 | 7.8 | 0.00 | 0.03 | 0.03 | 54 | 1010.2 |
| 20260505230659 | 62 | 141 | 3.5 | 7.8 | 0.00 | 0.03 | 0.03 | 53 | 1010.2 |
| 20260505230152 | 62 | 99 | 2.6 | 7.8 | 0.00 | 0.03 | 0.03 | 56 | 1010.2 |
| 20260505225647 | 62 | 128 | 2.6 | 7.8 | 0.00 | 0.03 | 0.03 | 58 | 1010.2 |
| 20260505225140 | 61 | 85 | 1.7 | 6.1 | 0.00 | 0.03 | 0.03 | 59 | 1010.1 |
| 20260505225122 | 60 | 96 | 1.7 | 4.3 | 0.02 | 0.03 | 0.03 | 57 | 1010.2 |
| 20260505224128 | 60 | 173 | 1.7 | 3.5 | 0.02 | 0.03 | 0.03 | 59 | 1010.3 |
| 20260505223623 | 59 | 88 | 1.7 | 3.5 | 0.02 | 0.03 | 0.03 | 60 | 1010.3 |
| 20260505223116 | 59 | 114 | 1.7 | 6.1 | 0.02 | 0.03 | 0.03 | 68 | 1010.4 |
| 20260505222611 | 58 | 140 | 2.6 | 6.1 | 0.02 | 0.03 | 0.03 | 66 | 1010.7 |
| 20260505222325 | 57 | 214 | 2.6 | 6.1 | 0.02 | 0.03 | 0.03 | 75 | 1010.9 |
| 20260505221558 | 57 | 173 | 2.6 | 5.2 | 0.02 | 0.03 | 0.03 | 72 | 1011.0 |
| 20260505221052 | 56 | 205 | 3.5 | 7.8 | 0.02 | 0.03 | 0.03 | 71 | 1010.9 |
| 20260505220546 | 57 | 215 | 4.3 | 14.8 | 0.02 | 0.03 | 0.03 | 72 | 1010.9 |
| 20260505220042 | 57 | 213 | 5.2 | 14.8 | 0.02 | 0.03 | 0.03 | 70 | 1011.2 |
| 20260505215535 | 58 | 279 | 3.5 | 13.0 | 0.02 | 0.03 | 0.03 | 65 | 1011.6 |
| 20260505215029 | 60 | 210 | 2.6 | 12.2 | 0.02 | 0.03 | 0.03 | 62 | 1011.6 |
| 20260505214523 | 62 | 314 | 2.6 | 7.8 | 0.00 | 0.01 | 0.01 | 58 | 1011.5 |
| 20260505214017 | 62 | 280 | 1.7 | 6.1 | 0.00 | 0.01 | 0.01 | 47 | 1011.2 |
| 20260505213735 | 62 | 351 | 1.7 | 4.3 | 0.00 | 0.01 | 0.01 | 47 | 1011.2 |
| 20260505213005 | 62 | 240 | 1.7 | 4.3 | 0.00 | 0.01 | 0.01 | 47 | 1011.1 |
| 20260505212459 | 62 | 198 | 1.7 | 4.3 | 0.00 | 0.01 | 0.01 | 47 | 1011.0 |
| 20260505211953 | 62 | 81 | 1.7 | 4.3 | 0.00 | 0.01 | 0.01 | 47 | 1011.0 |
| 20260505211447 | 62 | 271 | 1.7 | 6.1 | 0.00 | 0.01 | 0.01 | 48 | 1011.1 |
| 20260505210941 | 62 | 294 | 1.7 | 7.0 | 0.00 | 0.01 | 0.01 | 48 | 1011.4 |
| 20260505210435 | 62 | 67 | 1.7 | 7.0 | 0.00 | 0.01 | 0.01 | 47 | 1011.2 |
| 20260505205929 | 63 | 252 | 1.7 | 4.3 | 0.00 | 0.01 | 0.01 | 47 | 1011.4 |
| 20260505205423 | 62 | 221 | 1.7 | 4.3 | 0.00 | 0.01 | 0.01 | 48 | 1011.2 |
| 20260505204917 | 62 | 103 | 0.9 | 2.6 | 0.00 | 0.01 | 0.01 | 50 | 1011.2 |
| 20260505204411 | 61 | 34 | 1.7 | 3.5 | 0.00 | 0.01 | 0.01 | 49 | 1011.1 |
| 20260505203905 | 61 | 58 | 1.7 | 5.2 | 0.00 | 0.01 | 0.01 | 49 | 1011.5 |
| 20260505203359 | 62 | 68 | 1.7 | 8.7 | 0.00 | 0.01 | 0.01 | 50 | 1011.5 |
| 20260505202853 | 64 | 288 | 3.5 | 8.7 | 0.00 | 0.01 | 0.01 | 47 | 1011.7 |
| 20260505202353 | 65 | 302 | 2.6 | 8.7 | 0.00 | 0.01 | 0.01 | 48 | 1011.6 |
| 20260505201853 | 64 | 20 | 1.7 | 7.8 | 0.00 | 0.01 | 0.01 | 47 | 1011.6 |
| 20260505201353 | 64 | 355 | 1.7 | 5.2 | 0.00 | 0.01 | 0.01 | 49 | 1011.5 |
| 20260505200851 | 63 | 43 | 1.7 | 6.1 | 0.00 | 0.01 | 0.01 | 48 | 1011.6 |
| 20260505200351 | 62 | 283 | 1.7 | 6.1 | 0.00 | 0.01 | 0.01 | 53 | 1011.6 |
| 20260505195851 | 61 | 300 | 2.6 | 6.1 | 0.00 | 0.01 | 0.01 | 53 | 1011.6 |
| 20260505195349 | 61 | 290 | 2.6 | 7.0 | 0.00 | 0.01 | 0.01 | 52 | 1011.7 |
| 20260505194847 | 61 | 217 | 3.5 | 7.8 | 0.01 | 0.01 | 0.01 | 54 | 1012.0 |
| 20260505194345 | 61 | 221 | 3.5 | 7.8 | 0.01 | 0.01 | 0.01 | 56 | 1011.8 |
| 20260505193845 | 60 | 207 | 3.5 | 8.7 | 0.01 | 0.01 | 0.01 | 58 | 1012.1 |
| 20260505193345 | 60 | 236 | 4.3 | 8.7 | 0.01 | 0.01 | 0.01 | 56 | 1012.1 |
| 20260505192845 | 60 | 165 | 3.5 | 7.0 | 0.01 | 0.01 | 0.01 | 56 | 1012.0 |
| 20260505192345 | 60 | 244 | 3.5 | 8.7 | 0.01 | 0.01 | 0.01 | 65 | 1012.2 |
| 20260505191844 | 59 | 171 | 3.5 | 8.7 | 0.01 | 0.01 | 0.01 | 60 | 1012.1 |
| 20260505191613 | 59 | 166 | 3.5 | 7.0 | 0.01 | 0.01 | 0.01 | 65 | 1012.2 |
| 20260505190845 | 58 | 198 | 3.5 | 8.7 | 0.01 | 0.01 | 0.01 | 65 | 1012.2 |
| 20260505190345 | 58 | 150 | 3.5 | 8.7 | 0.01 | 0.01 | 0.01 | 70 | 1012.3 |
| 20260505185844 | 57 | 155 | 3.5 | 7.0 | 0.01 | 0.01 | 0.01 | 72 | 1012.2 |
| 20260505185339 | 56 | 200 | 2.6 | 9.6 | 0.01 | 0.01 | 0.01 | 74 | 1012.2 |
| 20260505185053 | 56 | 189 | 3.5 | 9.6 | 0.00 | 0.00 | 0.00 | 76 | 1012.3 |
| 20260505184327 | 56 | 202 | 4.3 | 9.6 | 0.00 | 0.00 | 0.00 | 71 | 1012.3 |
| 20260505183821 | 58 | 235 | 5.2 | 11.3 | 0.00 | 0.00 | 0.00 | 67 | 1012.3 |
| 20260505183542 | 59 | 189 | 5.2 | 11.3 | 0.00 | 0.00 | 0.00 | 60 | 1012.3 |
| 20260505182809 | 60 | 218 | 6.1 | 11.3 | 0.00 | 0.00 | 0.00 | 52 | 1012.2 |
| 20260505182309 | 61 | 218 | 5.2 | 10.4 | 0.00 | 0.00 | 0.00 | 50 | 1012.1 |
| 20260505181808 | 62 | 228 | 4.3 | 9.6 | 0.00 | 0.00 | 0.00 | 52 | 1012.2 |
| 20260505181530 | 62 | 237 | 3.5 | 9.6 | 0.00 | 0.00 | 0.00 | 60 | 1012.1 |
| 20260505181029 | 62 | 235 | 2.6 | 9.6 | 0.00 | 0.00 | 0.00 | 53 | 1012.0 |
| 20260505180307 | 61 | 302 | 1.7 | 4.3 | 0.00 | 0.00 | 0.00 | 45 | 1012.0 |
| 20260505175806 | 62 | 207 | 1.7 | 4.3 | 0.00 | 0.00 | 0.00 | 43 | 1012.1 |
| 20260505175305 | 62 | 246 | 2.6 | 8.7 | 0.00 | 0.00 | 0.00 | 44 | 1012.0 |
| 20260505174805 | 63 | 223 | 3.5 | 8.7 | 0.00 | 0.00 | 0.00 | 44 | 1012.0 |
| 20260505174304 | 63 | 232 | 2.6 | 7.8 | 0.00 | 0.00 | 0.00 | 43 | 1011.8 |
| 20260505173805 | 63 | 196 | 2.6 | 7.8 | 0.00 | 0.00 | 0.00 | 43 | 1012.0 |
| 20260505173305 | 63 | 265 | 1.7 | 6.1 | 0.00 | 0.00 | 0.00 | 44 | 1011.8 |
| 20260505172804 | 62 | 285 | 1.7 | 4.3 | 0.00 | 0.00 | 0.00 | 42 | 1012.0 |
| 20260505172305 | 60 | 22 | 1.7 | 4.3 | 0.00 | 0.00 | 0.00 | 43 | 1011.8 |
| 20260505171801 | 60 | 47 | 0.9 | 3.5 | 0.00 | 0.00 | 0.00 | 44 | 1012.0 |
| 20260505171300 | 60 | 309 | 1.7 | 5.2 | 0.00 | 0.00 | 0.00 | 45 | 1012.1 |
| 20260505170756 | 60 | 321 | 1.7 | 7.0 | 0.00 | 0.00 | 0.00 | 45 | 1012.2 |
| 20260505170520 | 60 | 65 | 1.7 | 7.0 | 0.00 | 0.00 | 0.00 | 45 | 1012.7 |
| 20260505165756 | 60 | 53 | 1.7 | 3.5 | 0.00 | 0.00 | 0.00 | 46 | 1012.5 |
| 20260505165257 | 60 | 115 | 0.9 | 3.5 | 0.00 | 0.00 | 0.00 | 47 | 1012.4 |
| 20260505164757 | 58 | 164 | 0.9 | 3.5 | 0.00 | 0.00 | 0.00 | 48 | 1012.4 |
| 20260505164257 | 58 | 94 | 1.7 | 6.1 | 0.00 | 0.00 | 0.00 | 50 | 1012.2 |
| 20260505163756 | 57 | 344 | 1.7 | 6.1 | 0.00 | 0.00 | 0.00 | 49 | 1012.3 |
| 20260505163257 | 57 | 335 | 1.7 | 5.2 | 0.00 | 0.00 | 0.00 | 50 | 1012.5 |
| 20260505163008 | 56 | 331 | 1.7 | 6.1 | 0.00 | 0.00 | 0.00 | 53 | 1012.5 |
| 20260505162841 | 56 | 339 | 2.6 | 5.2 | 0.00 | 0.00 | 0.00 | 52 | 1012.4 |
| 20260505161757 | 55 | 5 | 1.7 | 6.1 | 0.00 | 0.00 | 0.00 | 53 | 1012.4 |
| 20260505161517 | 55 | 351 | 2.6 | 7.8 | 0.00 | 0.00 | 0.00 | 55 | 1012.8 |
| 20260505160757 | 55 | 355 | 2.6 | 7.8 | 0.00 | 0.00 | 0.00 | 56 | 1012.8 |
| 20260505160518 | 55 | 38 | 3.5 | 7.8 | 0.00 | 0.00 | 0.00 | 57 | 1012.8 |
| 20260505152756 | 55 | 0 | 3.5 | 8.7 | 0.00 | 0.00 | 0.00 | 59 | 1013.2 |
| 20260505152257 | 55 | 341 | 4.3 | 9.6 | 0.00 | 0.00 | 0.00 | 60 | 1013.2 |
| 20260505151756 | 56 | 309 | 4.3 | 9.6 | 0.00 | 0.00 | 0.00 | 59 | 1013.2 |
| 20260505151256 | 55 | 319 | 3.5 | 8.7 | 0.00 | 0.00 | 0.00 | 62 | 1013.2 |
| 20260505151020 | 55 | 346 | 2.6 | 7.0 | 0.00 | 0.00 | 0.00 | 63 | 1013.1 |
| 20260505150744 | 55 | 11 | 2.6 | 7.8 | 0.00 | 0.00 | 0.00 | 62 | 1013.1 |
| 20260505140213 | 56 | 69 | 5.2 | 14.8 | 0.00 | 0.00 | 0.00 | 52 | 1013.4 |
| 20260505124544 | 58 | 294 | 0.9 | 3.5 | 0.00 | 0.00 | 0.00 | 44 | 1011.8 |
| 20260505124037 | 58 | 293 | 0.9 | 2.6 | 0.00 | 0.00 | 0.00 | 44 | 1012.2 |
| 20260505123532 | 58 | 223 | 0.9 | 1.7 | 0.00 | 0.00 | 0.00 | 43 | 1012.2 |
| 20260505123026 | 58 | 286 | 0.0 | 2.6 | 0.00 | 0.00 | 0.00 | 43 | 1012.2 |
| 20260505122743 | 58 | 300 | 0.9 | 2.6 | 0.00 | 0.00 | 0.00 | 43 | 1012.2 |
| 20260505122246 | 58 | 254 | 0.9 | 3.5 | 0.00 | 0.00 | 0.00 | 43 | 1012.2 |
| 20260505121508 | 58 | 259 | 1.7 | 7.0 | 0.00 | 0.00 | 0.00 | 43 | 1012.2 |
| 20260505121002 | 58 | 211 | 1.7 | 7.0 | 0.00 | 0.00 | 0.00 | 42 | 1012.1 |
| 20260505120456 | 58 | 280 | 1.7 | 6.1 | 0.00 | 0.00 | 0.00 | 42 | 1012.1 |
| 20260505115950 | 58 | 284 | 0.9 | 6.1 | 0.00 | 0.00 | 0.00 | 40 | 1012.0 |
| 20260505115444 | 58 | 302 | 0.9 | 2.6 | 0.00 | 0.00 | 0.00 | 40 | 1012.0 |
| 20260505114938 | 58 | 319 | 0.9 | 1.7 | 0.00 | 0.00 | 0.00 | 40 | 1011.8 |
| 20260505114432 | 58 | 306 | 0.0 | 1.7 | 0.00 | 0.00 | 0.00 | 39 | 1011.8 |
| 20260505113926 | 58 | 5 | 0.0 | 0.9 | 0.00 | 0.00 | 0.00 | 40 | 1011.6 |
| 20260505113420 | 58 | 5 | 0.0 | 0.9 | 0.00 | 0.00 | 0.00 | 39 | 1011.6 |
| 20260505112914 | 58 | 5 | 0.0 | 0.9 | 0.00 | 0.00 | 0.00 | 39 | 1011.7 |
| 20260505112407 | 58 | 5 | 0.0 | 0.9 | 0.00 | 0.00 | 0.00 | 38 | 1011.7 |
| 20260505111902 | 59 | 11 | 0.0 | 1.7 | 0.00 | 0.00 | 0.00 | 38 | 1011.6 |
| 20260505111615 | 59 | 11 | 0.0 | 2.6 | 0.00 | 0.00 | 0.00 | 37 | 1011.6 |
| 20260505110850 | 59 | 182 | 0.9 | 3.5 | 0.00 | 0.00 | 0.00 | 36 | 1011.7 |
| 20260505110344 | 59 | 252 | 0.9 | 4.3 | 0.00 | 0.00 | 0.00 | 37 | 1011.8 |